RH
48 48 48 42 42 46 52 51 54 53 54 53 54 54 54 53 55 55 64 63 71 58 49 37 35 34 31 33 32 32 30 29 29 29 30 33 36 39 41 36 29 31 29 29 27 19 15
42 67 56 52 50 54 63 64 75 68 57 62 64 66 64 62 60 51 52 49 48 43 42 40 38 35 33 35 39 39 40 43 48 53 51 51 47 43 41 38 50 46 42 47 46 48 34
58 76 55 77 57 54 60 77 80 88 88 83 82 72 67 67 57 56 53 50 51 49 49 47 44 36 33 34 37 38 40 47 47 56 65 77 80 87 93 87 74 69 84 67 66 54 39
51 63 74 60 81 57 75 86 71 88 90 91 91 74 81 81 86 87 75 64 49 49 48 48 48 47 45 42 42 41 38 38 40 37 36 37 33 31 37 67 55 48 61 84 96 52 28
55 54 72 76 95 84 80 95 100 92 100 96 100 90 81 71 78 95 99 91 86 70 57 61 54 44 40 46 45 45 46 48 48 45 44 42 42 40 37 41 36 33 33 35 41 27 22
39 42 58 74 88 76 98 86 100 88 100 100 100 91 82 79 82 80 100 100 100 94 73 78 72 69 56 57 50 48 43 43 44 45 47 47 44 40 44 43 40 41 40 36 40 32 20
43 56 61 71 84 96 100 100 100 98 100 93 100 100 95 91 83 82 91 100 100 100 93 87 93 97 71 70 78 71 65 59 47 46 44 45 43 37 38 38 36 36 37 33 36 26 24
40 38 40 49 65 93 100 100 100 100 100 98 100 100 95 93 90 92 81 97 96 91 100 100 96 100 99 85 76 82 84 92 81 68 62 70 64 45 50 48 45 54 40 44 39 29 20
34 38 40 42 64 66 78 97 100 100 100 100 100 99 99 86 86 74 72 55 94 98 95 100 100 100 100 97 97 92 93 91 97 88 82 99 75 79 70 55 46 62 43 46 35 48 25
40 43 46 52 52 51 54 87 100 100 100 100 100 100 100 100 76 53 65 66 41 60 68 81 95 100 97 100 100 98 100 100 97 94 96 100 95 97 89 68 51 73 55 48 43 42 46
36 38 45 44 48 52 57 82 96 100 100 100 100 100 100 100 100 60 35 57 60 35 33 47 52 78 98 100 100 96 96 100 98 94 97 97 98 100 85 78 59 66 58 59 47 43 44
34 39 39 42 50 49 56 63 78 97 100 100 100 100 100 100 100 79 37 38 54 49 31 34 38 42 65 84 95 99 100 99 96 100 100 100 100 100 97 80 68 54 56 68 65 48 58
32 36 36 42 50 48 60 55 54 62 80 100 100 100 100 100 100 100 34 18 21 33 28 25 29 33 47 64 84 96 98 100 100 100 100 100 100 100 99 80 70 50 57 60 68 70 63
33 33 34 38 43 50 59 67 61 62 72 96 100 100 100 100 98 82 71 22 17 17 16 21 23 25 36 39 69 93 100 100 100 96 98 99 100 96 94 82 78 69 60 48 52 60 65
30 30 31 36 39 46 60 64 52 60 68 84 100 100 100 100 100 88 54 22 16 16 14 11 10 12 14 24 34 61 96 96 90 80 67 86 100 92 91 92 86 92 71 67 61 65 64
30 29 28 32 36 42 50 57 61 66 64 69 97 100 100 100 99 74 33 18 13 13 12 8 8 8 9 10 16 27 57 85 87 81 55 71 90 94 100 84 84 78 75 66 53 60 71
29 29 29 30 35 39 42 52 66 67 70 76 97 100 100 90 100 27 16 14 12 10 10 8 7 7 8 8 9 15 35 56 66 68 52 52 70 100 99 91 90 82 70 59 51 64 69
32 31 28 30 38 40 44 49 56 74 85 78 82 99 100 100 100 42 11 11 11 10 7 6 7 6 6 7 8 10 20 31 44 48 51 29 31 69 86 69 70 83 79 68 52 63 67
32 29 26 32 38 39 40 48 61 72 81 74 86 92 100 91 97 70 16 10 10 9 7 6 6 6 6 6 7 9 12 18 26 33 31 24 16 26 38 45 50 61 51 53 54 50 77
30 30 28 31 36 41 42 45 55 67 71 72 77 93 96 100 87 61 14 10 9 9 7 6 6 5 6 6 6 7 9 10 13 19 17 15 15 16 20 32 31 43 41 32 35 45 65
33 26 28 32 36 48 43 46 57 65 64 71 82 95 100 87 97 60 17 9 9 9 7 5 5 5 5 6 6 7 7 8 10 11 10 12 15 16 16 17 19 27 33 38 18 32 45
32 31 28 31 33 41 52 44 54 68 70 69 84 95 100 100 83 74 22 12 9 9 6 6 5 5 5 5 6 7 6 6 7 7 7 7 11 12 14 12 12 15 15 18 26 23 37
32 29 28 28 35 48 57 46 55 62 67 73 82 85 99 100 84 44 22 10 10 9 7 5 5 5 5 5 6 6 6 6 6 7 7 7 7 9 12 10 11 12 11 12 17 24 17
34 30 28 27 31 43 49 48 52 51 59 66 75 79 100 100 91 46 20 10 8 9 7 5 5 5 5 6 6 6 6 6 6 7 7 7 6 7 9 8 10 8 8 9 14 16 13
34 29 28 29 34 46 55 55 49 51 54 65 79 84 99 100 99 72 24 9 8 8 6 6 5 5 5 5 6 6 6 7 6 6 6 7 7 7 8 8 9 8 8 8 11 14 14
38 30 31 33 32 50 64 54 56 54 60 69 77 84 97 100 99 88 34 8 7 7 7 6 5 5 5 5 6 7 7 7 7 7 7 7 7 7 8 9 10 9 8 8 9 12 12
37 32 30 30 35 42 55 47 58 56 50 64 76 79 89 100 100 80 42 9 6 7 6 6 5 5 5 5 6 9 11 10 9 8 8 9 9 8 8 9 10 9 8 8 9 10 11
35 30 30 34 36 51 52 55 66 63 58 61 71 79 97 98 99 86 32 7 6 6 6 6 6 5 5 6 7 9 10 11 12 12 12 11 11 11 10 9 10 9 9 8 9 10 10
38 32 32 35 41 68 63 55 64 66 60 57 72 76 94 100 100 86 48 8 6 6 5 6 5 5 5 7 8 9 9 10 10 10 11 12 14 13 13 13 12 12 12 11 10 11 11
Wind_Speed
57 63 62 60 67 72 66 62 59 51 40 35 33 33 33 34 34 33 36 37 39 43 43 46 50 53 55 56 59 59 60 62 63 66 68 68 70 74 76 77 78 79 83 84 87 95 100
56 60 57 62 63 62 66 69 65 65 67 55 42 36 33 34 33 34 35 35 36 36 38 41 47 52 56 56 60 62 64 66 67 68 69 72 73 75 81 81 84 84 84 87 91 93 96
45 50 54 60 61 65 66 66 69 67 68 70 62 49 39 35 32 32 31 32 32 34 35 39 40 44 47 51 55 57 63 67 69 72 76 79 81 85 87 87 88 88 90 91 98 101 100
42 48 53 57 60 62 63 65 70 74 75 80 74 60 49 45 42 42 41 38 36 33 32 35 36 38 40 44 45 47 50 54 59 63 68 69 71 74 78 89 87 87 90 97 105 104 95
48 46 51 56 65 61 66 68 70 72 75 81 79 69 57 54 48 43 42 43 44 42 38 38 38 38 37 38 35 39 42 45 49 52 54 57 61 65 65 66 71 74 77 83 90 95 90
43 46 49 56 60 63 65 69 72 76 78 82 83 83 73 58 55 47 43 46 45 46 44 44 44 45 42 43 42 40 38 39 39 42 45 47 51 55 51 58 60 63 69 75 85 87 82
42 49 54 57 59 60 61 67 69 75 81 85 86 83 82 70 62 55 46 45 46 46 49 48 45 49 49 45 46 46 47 48 46 45 41 44 50 46 46 49 52 53 57 62 72 81 73
51 52 53 49 52 54 61 65 68 71 77 83 89 92 91 77 67 58 52 48 47 47 52 50 50 49 51 50 48 48 46 49 51 51 49 51 55 45 46 47 44 49 49 51 52 68 64
53 53 51 50 53 57 59 60 65 67 76 84 91 95 96 89 74 61 55 51 47 49 49 53 52 50 52 54 51 49 49 49 50 51 50 52 58 54 54 53 41 49 49 44 46 56 61
57 54 58 61 57 58 56 59 62 67 73 80 90 96 98 99 89 71 58 53 49 47 44 49 53 55 52 54 55 53 50 51 53 51 51 54 59 58 60 58 46 49 49 45 45 44 51
52 52 58 58 61 67 69 65 64 68 69 81 88 100 102 100 98 84 71 59 54 49 45 46 51 52 52 52 53 56 55 53 54 54 53 58 57 59 63 63 53 53 46 47 47 41 42
51 55 60 63 67 67 72 76 76 70 69 78 88 95 104 105 102 91 77 63 57 53 48 47 48 50 51 50 53 55 56 57 56 55 55 58 56 60 61 63 60 51 44 44 45 39 36
53 56 57 63 66 66 72 75 79 83 80 80 86 93 104 110 110 99 83 72 61 54 53 51 52 51 50 52 52 56 58 59 61 56 56 56 60 61 62 63 63 53 45 38 35 38 30
54 55 56 60 69 69 74 79 80 79 84 86 89 94 107 113 108 97 88 78 67 57 48 51 54 54 54 54 54 56 59 58 58 60 59 57 60 61 64 65 62 60 51 41 30 31 25
55 53 54 62 64 68 76 80 83 90 88 91 93 100 109 120 116 104 89 81 70 64 54 52 52 51 55 56 57 55 60 64 62 59 59 57 56 61 66 65 61 62 57 49 33 31 25
56 54 53 65 68 73 76 82 85 87 94 95 96 102 108 119 116 103 91 82 75 67 57 53 52 50 49 51 54 56 58 60 59 59 59 59 56 59 66 66 63 58 56 50 35 25 26
57 55 62 62 67 75 78 79 85 89 96 99 101 103 107 118 124 102 89 83 76 67 58 53 49 46 47 47 49 53 58 61 60 57 58 59 58 59 63 70 66 64 55 45 33 26 24
59 63 62 63 73 76 78 82 86 90 95 99 104 106 111 119 121 108 94 83 73 69 62 50 48 45 45 45 44 48 55 59 60 57 57 57 55 58 62 64 62 61 60 50 37 27 26
58 65 61 70 75 75 82 83 90 95 99 103 107 108 114 121 124 117 100 88 73 68 64 56 47 45 44 44 40 45 50 55 58 60 57 55 50 52 53 57 58 57 55 49 40 28 29
64 64 64 71 74 79 83 87 89 97 101 105 107 112 116 122 126 120 100 86 74 66 65 58 53 47 45 45 44 38 46 48 52 57 55 48 42 46 44 52 50 52 53 51 39 33 31
64 70 68 74 76 82 87 93 94 100 104 106 108 113 120 128 131 122 100 91 79 68 66 58 54 51 47 43 41 39 40 45 48 53 51 49 45 46 48 48 48 48 51 56 41 33 29
65 67 71 77 82 84 88 96 99 101 104 109 113 118 122 129 134 124 105 94 83 76 70 58 53 52 49 44 38 42 40 43 45 49 50 44 46 48 49 51 46 46 49 45 47 40 33
69 73 75 81 79 87 89 95 101 106 105 114 117 119 123 130 137 124 107 94 85 73 74 60 52 52 49 44 41 40 41 43 42 44 47 42 42 42 44 51 46 47 48 43 44 46 34
71 73 77 83 87 87 93 97 103 110 112 114 116 122 127 131 138 132 109 94 85 78 73 65 52 48 45 45 44 41 40 40 40 43 43 43 42 39 40 44 45 45 44 43 44 47 38
72 76 76 84 89 89 93 99 106 107 115 115 120 127 129 132 139 139 121 93 82 78 74 66 59 52 44 41 41 43 42 40 40 41 41 40 40 40 39 40 43 45 39 40 42 45 42
77 76 84 87 90 88 90 99 106 110 115 122 124 126 131 136 141 144 129 99 83 76 73 67 62 56 48 41 39 38 41 42 42 41 38 38 37 35 35 36 39 44 39 38 40 44 45
78 79 85 86 89 92 94 102 108 114 117 124 125 124 130 136 143 145 134 107 88 76 70 64 62 58 51 43 40 38 39 39 42 42 40 36 33 33 33 31 38 43 40 38 40 45 46
82 81 85 88 94 93 97 104 109 116 120 126 130 131 132 139 143 146 136 107 90 78 69 63 59 57 52 46 44 43 43 43 43 41 39 38 35 34 32 30 36 37 38 39 39 45 46
85 84 90 93 97 97 102 107 112 118 122 129 134 133 134 140 146 144 142 114 93 82 71 65 60 56 51 48 49 50 50 47 47 46 41 41 37 36 34 31 33 33 37 40 41 44 45
Wind_Direction
29 33 32 34 37 39 38 37 31 22 9 356 350 343 333 324 314 306 300 295 292 282 276 271 266 262 259 257 258 259 259 258 259 258 260 260 260 258 258 259 258 259 260 259 259 259 257
26 24 25 27 28 27 29 31 28 25 22 15 356 342 337 335 327 318 312 303 298 288 282 279 275 268 263 261 259 258 257 258 260 259 260 262 262 261 261 262 262 261 263 263 260 259 258
10 13 19 16 23 23 23 22 22 21 17 14 10 359 346 339 334 330 319 307 301 292 288 282 277 270 267 265 264 265 260 260 261 262 262 263 262 262 263 263 262 263 263 263 262 261 259
15 16 19 22 19 20 18 19 18 17 16 13 9 4 354 343 334 329 327 322 312 307 299 291 281 273 272 269 268 265 262 262 262 262 260 261 263 262 263 262 266 263 263 262 264 263 259
16 24 21 20 19 17 16 13 14 14 11 9 6 4 359 353 348 327 321 316 315 311 307 306 301 292 287 281 277 272 266 263 263 264 263 261 262 262 262 263 263 263 261 261 260 261 262
20 21 15 8 10 14 15 14 13 10 9 7 4 5 360 353 351 342 321 312 307 305 306 307 304 300 296 295 293 288 280 277 274 272 270 269 268 267 270 268 268 270 268 265 263 264 264
5 3 358 357 359 4 4 7 7 6 8 6 3 0 1 356 349 344 330 314 304 301 300 301 300 296 296 293 293 292 293 291 289 287 283 280 273 270 272 273 273 269 273 269 270 268 264
0 1 355 1 0 358 359 358 360 1 4 1 2 2 1 356 350 343 336 317 307 300 296 294 296 293 290 291 289 287 288 288 289 291 294 295 290 288 286 282 281 285 278 277 273 271 269
12 9 3 359 357 359 356 354 357 358 358 359 360 0 2 358 351 344 338 331 309 298 294 290 291 290 285 285 285 285 283 285 284 285 288 290 288 292 293 290 289 291 283 287 277 280 278
4 8 6 6 3 0 3 357 351 348 352 353 358 358 358 357 355 347 337 332 323 305 294 288 284 284 282 279 280 282 280 279 279 280 283 281 284 286 288 290 291 293 288 288 281 278 276
2 7 7 8 9 4 360 352 352 353 352 355 356 358 358 356 353 350 343 333 327 315 305 294 288 283 280 278 276 275 277 277 278 279 278 279 280 281 285 287 290 290 293 295 292 284 282
360 1 7 5 6 7 4 358 357 354 352 354 353 355 356 354 354 349 344 336 326 315 305 298 292 284 278 277 275 275 277 278 275 274 275 276 278 278 281 284 287 287 292 293 293 285 287
354 358 360 1 2 5 6 2 358 355 355 355 355 355 353 354 352 350 345 341 331 317 307 300 291 286 283 278 275 274 275 277 277 273 272 274 275 274 277 281 284 287 289 284 287 285 288
357 356 355 0 1 359 2 1 358 356 355 353 354 356 355 352 352 349 346 339 335 327 314 302 294 289 283 277 275 273 274 273 277 269 263 263 268 274 276 279 282 289 288 286 280 275 276
354 357 0 352 356 359 356 5 3 359 357 355 355 358 356 355 352 349 344 341 337 331 322 312 299 292 287 280 275 270 269 271 274 277 272 267 266 269 274 277 279 282 285 287 285 281 260
347 348 352 352 358 352 355 357 1 1 356 356 355 355 356 356 352 349 343 340 334 330 325 317 308 297 287 283 279 274 269 268 272 273 272 269 268 270 273 275 278 280 282 284 283 270 259
344 346 348 347 352 348 351 358 356 359 357 356 353 356 357 357 354 349 344 338 332 328 326 320 312 303 296 288 280 273 267 267 268 269 269 269 268 266 269 273 277 281 281 280 276 272 242
340 342 346 345 349 350 354 359 358 357 355 357 353 355 359 357 356 353 346 341 334 330 324 322 314 307 301 292 283 277 269 266 265 267 266 268 267 263 265 270 273 275 278 280 277 269 241
345 346 345 343 347 353 354 356 359 357 356 356 356 356 358 359 359 356 350 343 338 332 328 325 319 312 305 296 288 279 273 271 270 270 270 270 272 269 269 271 273 275 276 274 267 259 243
343 344 342 342 349 351 348 351 354 356 356 354 358 354 357 357 359 357 352 346 339 336 330 326 319 317 308 298 289 280 273 272 272 270 270 272 273 272 268 268 272 274 274 269 262 256 231
343 343 344 345 348 347 353 351 352 355 357 357 356 355 356 359 358 357 354 350 343 337 330 327 321 321 313 303 295 286 278 273 270 270 270 271 266 267 269 265 265 265 264 270 267 245 223
339 343 340 338 346 348 349 351 352 352 356 357 356 355 355 358 359 358 352 350 346 338 332 329 324 322 315 308 302 292 286 278 275 275 276 273 271 267 264 266 265 264 261 261 262 258 221
334 340 339 340 343 347 348 354 353 353 353 353 353 352 354 358 357 358 353 348 345 342 332 330 327 324 318 310 305 297 291 285 281 278 280 280 269 265 263 264 264 261 260 254 248 247 230
334 336 338 334 336 344 348 349 350 353 354 353 356 355 353 356 357 358 353 347 344 342 336 330 329 326 316 311 308 302 296 289 284 280 279 278 278 273 266 266 264 259 254 249 244 243 238
332 337 337 334 336 339 346 346 350 351 353 357 355 355 351 353 358 360 354 348 343 340 337 332 329 327 320 312 308 305 301 296 289 284 283 281 278 277 275 270 266 263 254 246 240 241 236
328 331 333 328 333 338 341 345 349 352 350 354 353 355 353 353 354 358 355 350 344 342 337 332 329 326 321 316 310 304 300 297 292 288 286 283 282 279 273 270 268 262 254 246 239 236 236
327 330 330 332 334 339 344 346 346 352 353 352 353 354 355 354 354 356 355 350 343 341 337 334 329 325 320 316 311 307 300 295 292 289 288 285 282 274 267 262 259 258 256 248 238 235 233
328 328 328 331 336 339 342 345 345 346 350 351 352 353 354 355 353 355 356 350 345 340 339 334 330 325 321 318 313 308 302 297 292 289 286 282 279 276 272 260 255 256 254 249 238 236 231
324 325 325 326 332 336 338 342 342 345 348 349 352 352 354 352 353 354 354 351 346 343 339 335 331 325 320 317 314 309 304 299 294 289 283 279 276 272 269 264 259 252 247 248 242 236 232